星链-31606 (STARLINK-31606 )

导读 | 星芒AI

STARLINK-31606 是 SpaceX 星链计划中的一颗低轨通信卫星,属于第 11 批星链卫星(Batch 11)。该卫星于 2023 年 9 月 28 日由猎鹰 9 号火箭从美国卡纳维拉尔角发射升空。作为星链星座的一部分,STARLINK-31606 主要用于提供全球范围内的高速互联网服务,尤其在偏远和网络基础设施薄弱的地区。它运行在约 550 公里的轨道高度,设计寿命约为 5 年,具备先进的推进和通信技术,支持星间链路,提升网络效率与覆盖能力。

基本信息
目录编号:
59571
目录名称:
STARLINK-31606
国际标识:
2024-076H
轨道中心:
EARTH
卫星名称:
星链-31606
卫星全名:
星链-31606 (STARLINK-31606 )
卫星状态:
在轨 (已飞行606 天)
发射日期:
2024-04-23 UTC
国别 :
美国 (US)
星等 :
--
轨道信息
数据来源 国际轨道数据 AOE轨道数据
星历时间 2025-12-20T04:00:02+0800
4小时前
查看轨道信息
2025-12-18T05:00:00+0800
2天前
查看轨道信息
半长轴 6861.2km 6861.205km
偏心率 0.000171 0.0001391
轨道倾角 43.003° 43.003°
近地点辐角 277.619° 259.790°
升交点赤经 99.576° 110.638°
平近点角 111.896° 147.582°
近地点 481.889km 482.115km
远地点 484.237km 484.025km
周期 94.267分钟 94.267分钟
每日圈数 15.275754 15.27574
详细信息
固有亮度:
5
最大亮度:
1.5
卫星平台:
Starlink v2.0 mini
覆盖范围:
全球
运营商:
太空探索技术公司
运营商所在国:
美国
制造商(研发单位):
太空探索技术公司
制造商所在国:
美国
使用方式:
暂无
卫星简介
星链(Starlink)计划是由太空探索技术公司(SpaceX)提出的一个巨型低轨卫星互联网星座项目,计划在2019年至2024年间在太空搭建由约1.2万颗卫星组成的“星链”网络,其中1584颗将部署在地球上空550千米处的近地轨道,并从2020年开始工作。该卫星仍在工作。
2D轨道图
3D轨道图
轨道高度分析图
轨道倾角分析图
轨道综合分析图
查看轨道综合分析图